HODOYOSHI-1
1 40299U 14070B 15365.52103800 .00002559 00000-0 11986-3 0 9994
2 40299 97.4431 84.5957 0014622 156.6899 329.2394 15.20537509 63795
CHUBUSAT-1
1 40300U 14070C 15365.56060509 .00002462 00000-0 12037-3 0 9990
2 40300 97.4397 83.3361 0022201 163.3549 310.4208 15.18962566 63725
QSAT-EOS
1 40301U 14070D 15365.54926227 .00004465 00000-0 21138-3 0 9994
2 40301 97.4339 82.5417 0030778 164.8446 309.2802 15.19436353 63687
TSUBAME
1 40302U 14070E 15365.54175243 .00002294 00000-0 12602-3 0 9993
2 40302 97.4314 80.0048 0041966 173.2916 300.9751 15.14362380 63528
FIREBIRD FU3
1 40377U 15003B 15365.79586777 .00006130 00000-0 29109-3 0 9990
2 40377 99.0934 75.9799 0149468 325.3872 33.7691 15.10344377 50341
FIREBIRD FU4
1 40378U 15003C 15365.79310722 .00005967 00000-0 28322-3 0 9999
2 40378 99.0934 75.9855 0149732 325.3491 33.8046 15.10347394 50343
GRIFEX
1 40379U 15003D 15365.82227920 .00005098 00000-0 24988-3 0 9990
2 40379 99.0941 75.6265 0152484 327.4940 31.6962 15.09076677 50326
LAMBDA-SAT
1 40458U 98067GB 15136.30676273 .20783109 12527-4 14817-2 0 9995
2 40458 051.6075 233.7697 0010355 318.5347 043.1720 16.39926603 21161
NO-84
1 40654U 15025X 15365.49198584 .00010846 00000-0 25592-3 0 02303
2 40654 054.9919 080.7517 0226453 015.0668 345.6855 15.20099339034110
NO-83
1 40655U 15025X 15365.50388661 .00013832 00000-0 31121-3 0 02328
2 40655 054.9828 078.8314 0216285 015.8125 344.9398 15.22756596034145
DEORBITSAIL
1 40719U 15032E 15364.94014548 .00001140 00000-0 17632-3 0 9994
2 40719 098.0355 252.8995 0018112 061.7067 298.5967 14.75110666025531
NUDT-PHONESAT
1 40900U 15049B 15365.40261230 .00006852 00000-0 37133-3 0 9991
2 40900 97.4462 11.3358 0014230 284.6208 181.7437 15.14826726 15502
XW-2D
1 40907U 15049J 15365.44750380 .00002939 00000-0 17088-3 0 9990
2 40907 97.4509 11.1930 0013665 260.1689 236.4717 15.12776618 15486
XW-2F
1 40910U 15049M 15365.57978271 .00003607 00000-0 20806-3 0 9994
2 40910 97.4555 11.3622 0014836 257.6902 228.8831 15.12899974 15394
XW-2B
1 40911U 15049N 15365.57548532 .00002813 00000-0 16367-3 0 9993
2 40911 97.4568 11.3868 0013558 258.8174 221.3744 15.12784237 15403
DCBB
1 40912U 15049P 15365.52645355 .00003847 00000-0 21066-3 0 9990
2 40912 97.4548 11.5922 0015425 254.8123 232.1060 15.14717482 15412
TW-1C
1 40926U 15051B 15365.71826351 .00009903 00000-0 31731-3 0 9995
2 40926 97.2963 39.7179 0014373 296.2281 202.4469 15.32466983 14923
TW-1A
1 40928U 15051D 15365.55120806 .00006365 00000-0 21239-3 0 9992
2 40928 97.2905 39.4143 0013813 314.3293 203.1997 15.31317045 14895
IO-86
1 40931U 15052B 15365.20146366 .00001071 00000-0 60587-4 0 9997
2 40931 6.0041 79.7948 0013223 250.4870 109.3772 14.76404595 13919
AAUSat-5
1 40948U 98067GZ 15365.72348557 .00113645 00000-0 94925-3 0 9998
2 40948 51.6364 173.9257 0006786 282.6674 77.3564 15.69153271 13611
GomX-3
1 40949U 98067HA 15365.70619161 .00061340 00000-0 65436-3 0 9998
2 40949 51.6392 175.3273 0005674 302.7867 57.2580 15.63333997 13591
LQSat
1 40958U 15057A 15365.82664198 -.00000101 00000-0 -78551-5 0 9993
2 40958 98.0320 77.8050 0017558 336.9107 23.1284 14.72780203 12605
AO-85
1 40967U 15058D 15363.38242379 .00002253 00000-0 24809-3 0 00855
2 40967 064.7803 043.6761 0216948 257.3619 100.3083 14.74602293011944
ATHENOXAT-1
1 41168U 15077C 15365.52626417 .00004270 00000-0 22412-3 0 9990
2 41168 14.9891 100.7175 0012777 192.0396 270.2919 15.08587960 2235
